Regional Weather Roundup
Issued by NWS Charleston, WV

Home | Current Version | Previous Version | Graphics & Text | Print | Product List | Glossary On
Versions: 1 2 3 4 5 6 7 8 9 10 11 12 13 14 15 16 17 18 19 20 21 22 23 24 25 26 27 28 29 30 31 32 33 34 35 36 37 38 39 40 41 42 43 44 45 46 47 48 49 50
876
ASUS41 KRLX 292110
RWRRLX
West Virginia Regional Weather Roundup
National Weather Service Charleston WV
500 PM EDT SAT APR 29 2017

Note: "fair" indicates few or no clouds below 12,000 feet with no
significant weather and/or obstructions to visibility.

WVZ003-292200-
Northern Panhandle of West Virginia

CITY           SKY/WX    TMP DP  RH WIND       PRES   REMARKS
WHEELING       MOSUNNY   71  62  73 S7        30.08F
$$

WVZ009-292200-
Northwest West Virginia

CITY           SKY/WX    TMP DP  RH WIND       PRES   REMARKS
PARKERSBURG    SUNNY     78  65  63 W5        30.09F
$$

WVZ006-292200-
Western West Virginia

CITY           SKY/WX    TMP DP  RH WIND       PRES   REMARKS
HUNTINGTON     MOSUNNY   82  68  62 VRB3      30.04F
$$

WVZ015-292200-
West Central West Virginia

CITY           SKY/WX    TMP DP  RH WIND       PRES   REMARKS
CHARLESTON     CLOUDY    84  64  50 NE5       30.05F
$$

WVZ022-031-292200-
North Central West Virginia

CITY           SKY/WX    TMP DP  RH WIND       PRES   REMARKS
CLARKSBURG     MOSUNNY   79  66  64 CALM      30.10F
MORGANTOWN     MOSUNNY   78  64  61 VRB6      30.11F
$$

WVZ025-035-042-045-292200-
Southern West Virginia

CITY           SKY/WX    TMP DP  RH WIND       PRES   REMARKS
BECKLEY        CLOUDY    81  57  43 N7        30.15F
LOGAN          NOT AVBL
BLUEFIELD      LGT RAIN  72  51  47 VRB7G30   30.17S
LEWISBURG      CLOUDY    83  57  41 N3        30.14F
$$

WVZ047-292200-
Northern Mountains of West Virginia

CITY           SKY/WX    TMP DP  RH WIND       PRES   REMARKS
ELKINS         CLOUDY    80  57  45 SW8       30.15F
$$

WVZ052-292200-
Eastern Panhandle of West Virginia

CITY           SKY/WX    TMP DP  RH WIND       PRES   REMARKS
MARTINSBURG    CLOUDY    85  61  44 W7        30.04F
PETERSBURG     PTSUNNY   84  64  49 W7        30.08F
$$




USA.gov is the U.S. government's official web portal to all federal, state and local government web resources and services.